Ukiah, CA

10:33 PM PDT on October 20, 2019 (GMT -0700)
Ukiah Municipal

Weather History for KUKI - September, 2019

Change the Weather History Date:

Friday, September 20, 2019

  Actual Average Record
Temperature  
Mean Temperature 68 °F 68 °F  
Max Temperature 86 °F 87 °F 106 °F (1919)
Min Temperature 50 °F 49 °F 33 °F (1895)
Degree Days  
Heating Degree Days 0 1  
Month to date heating degree days 4 10  
Since 1 July heating degree days 4 13  
Cooling Degree Days 3 4  
Month to date cooling degree days 94 101  
Year to date cooling degree days 1063 784  
Growing Degree Days 18 (Base 50)    
Moisture  
Dew Point 46 °F    
Average Humidity 57    
Maximum Humidity 89    
Minimum Humidity 16    
Precipitation  
Precipitation 0.00 in 0.01 in 0.50 in (1973)
Month to date precipitation 0.12 0.28  
Year to date precipitation 34.88 23.80  
Snow  
Snow 0.00 in - - ()
Month to date snowfall 0.0  
Since 1 July snowfall 0.0  
Since 1 September snowfall 0.0  
Snow Depth 0.00 in    
Sea Level Pressure  
Sea Level Pressure 29.95 in    
Wind  
Wind Speed 1 mph ()    
Max Wind Speed 15 mph    
Max Gust Speed 19 mph    
Visibility 10.0 miles    
Events      
T = Trace of Precipitation, MM = Missing Value Source: Averaged Metar Reports

Daily Weather History Graph

Daily Weather History Graph

Search for Another Location

Airport or City:

Astronomy

Sep. 20, 2019 Rise Set
Actual Time 6:58 AM PDT 7:13 PM PDT
Civil Twilight 6:31 AM PDT 7:39 PM PDT
Nautical Twilight 6:00 AM PDT 8:11 PM PDT
Astronomical Twilight 5:28 AM PDT 8:43 PM PDT
Moon 11:09 PM PDT (9/20) 1:06 PM PDT (9/20)
Length of Visible Light 13h 08m
Length of Day
12h 14m
Waning Gibbous, 64% of the Moon is Illuminated
Sep 20
Waning Gibbous
Sep 21
Last Quarter
Sep 28
New
Oct 5
First Quarter
Oct 13
Full

Hourly Weather History & Observations

Time (PDT) Temp. Dew Point Humidity Pressure Visibility Wind Dir Wind Speed Gust Speed Precip Events Conditions
12:56 AM 55.9 °F 50.0 °F 80% 29.96 in 10.0 mi Calm Calm - N/A   Clear
1:56 AM 54.0 °F 50.0 °F 86% 29.97 in 10.0 mi Calm Calm - N/A   Clear
2:56 AM 54.0 °F 48.9 °F 83% 29.97 in 10.0 mi Calm Calm - N/A   Clear
3:56 AM 51.1 °F 48.0 °F 89% 29.97 in 10.0 mi Calm Calm - N/A   Clear
4:56 AM 52.0 °F 48.0 °F 86% 29.96 in 10.0 mi Calm Calm - N/A   Clear
5:56 AM 50.0 °F 46.9 °F 89% 29.98 in 10.0 mi Calm Calm - N/A   Clear
6:56 AM 50.0 °F 46.9 °F 89% 29.98 in 10.0 mi Calm Calm - N/A   Clear
7:56 AM 52.0 °F 48.0 °F 86% 29.99 in 10.0 mi Calm Calm - N/A   Clear
8:56 AM 57.9 °F 50.0 °F 75% 30.00 in 10.0 mi Calm Calm - N/A   Clear
9:56 AM 63.0 °F 51.1 °F 65% 30.00 in 10.0 mi Calm Calm - N/A   Clear
10:56 AM 69.1 °F 48.0 °F 47% 29.99 in 10.0 mi North 4.6 mph - N/A   Clear
11:56 AM 75.0 °F 46.9 °F 37% 29.97 in 10.0 mi Calm Calm - N/A   Clear
12:56 PM 79.0 °F 42.1 °F 27% 29.95 in 10.0 mi Calm Calm - N/A   Clear
1:56 PM 82.0 °F 36.0 °F 19% 29.93 in 10.0 mi Variable 3.5 mph - N/A   Clear
2:56 PM 84.0 °F 34.0 °F 17% 29.91 in 10.0 mi East 4.6 mph - N/A   Clear
3:56 PM 84.0 °F 37.0 °F 19% 29.90 in 10.0 mi Calm Calm - N/A   Clear
4:56 PM 84.9 °F 45.0 °F 25% 29.88 in 10.0 mi NNW 11.5 mph - N/A   Clear
5:56 PM 80.1 °F 46.0 °F 30% 29.88 in 10.0 mi Variable 4.6 mph - N/A   Clear
6:56 PM 75.9 °F 46.9 °F 36% 29.90 in 10.0 mi NE 5.8 mph - N/A   Clear
7:56 PM 73.0 °F 46.9 °F 39% 29.91 in 10.0 mi South 3.5 mph - N/A   Clear
8:56 PM 68.0 °F 48.9 °F 50% 29.93 in 10.0 mi Calm Calm - N/A   Clear
9:56 PM 64.9 °F 50.0 °F 58% 29.94 in 10.0 mi Calm Calm - N/A   Clear
10:56 PM 63.0 °F 50.0 °F 63% 29.94 in 10.0 mi SE 4.6 mph - N/A   Clear
11:56 PM 61.0 °F 50.0 °F 67% 29.95 in 10.0 mi Calm Calm - N/A   Clear